Location: Quaker Farms
(41.4276°N, 73.1557°W)
Time: 00:35:33
(UTC+00:00)

Altair - Pass Details

Date: 23 June 2021
Orbit: 1501 x 1682 km, 47.2° (Epoch: 23 July)

Event Time Altitude Azimuth Distance (km) Brightness Sun altitude
Rises 00:38:29 0° 296° (WNW) 4,839 12.6 -2.2°
Reaches altitude 10° 00:41:56 10° 287° (WNW) 3,874 11.2 -2.7°
Maximum altitude 00:50:28 34° 228° (SW) 2,497 8.8 -4.0°
Drops below altitude 10° 00:59:09 10° 168° (SSE) 3,933 9.2 -5.3°
Sets 01:02:43 0° 160° (SSE) 4,920 9.6 -5.8°
